Flag for Belgium Weather past 2 weeks in Leuven, Belgium

Now
63 °F

Passing clouds.


Feels Like: 63 °F
Forecast: 47 / 65 °F
Wind: 3 mph from Southwest

Location: Brussels National Airport

Current Time: May 22, 2015 at 12:28:28 PM

Latest Report: May 22, 2015 at 11:50 AM


Visibility: N/A

Pressure: 30.33 "Hg

Humidity: 52%

Dew point: 45 °F

Location of LeuvenLocation

Historic Weather in Leuven — Graph

°F

Leuven temperature yesterday

Maximum temperature yesterday: 64 °F (at 3:20 PM)
Minimum temperature yesterday: 43 °F (at 4:20 AM)
Average temperature yesterday: 54 °F

Past Weeks' High & Low Weather Summary

 TemperatureHumidityPressure
High77 °F (May 11, 2:50 PM)100% (May 16, 3:20 PM)30.36 "Hg (May 16, 3:20 PM)
Low39 °F (May 14, 5:20 AM)32% (May 13, 4:20 PM)29.68 "Hg (May 18, 7:50 PM)
Average55 °F70%30.07 "Hg
* Reported May 7 10:20 AM — May 22 10:50 AM, Leuven, Weather by CustomWeather, © 2015

Note: Actual official high and low records may vary slightly from our data, if they occured in-between our weather recording intervals... More about our weather records

Advertising

Leuven weather history for previous 24 hours

 ConditionsComfort  
Time TempWeatherWind HumidityBarometerVisibility
10:50 AM
Fri, May 22
59 °FSunny.6 mph55%30.33 "Hg10 mi
10:20 AM57 °FPassing clouds.6 mph63%30.33 "HgN/A
9:50 AM57 °FPassing clouds.6 mph63%30.33 "HgN/A
9:20 AM55 °FPassing clouds.5 mph72%30.33 "HgN/A
8:50 AM54 °FSunny.5 mph77%30.33 "Hg10 mi
8:20 AM54 °FSunny.5 mph77%30.33 "Hg10 mi
7:50 AM52 °FSunny.5 mph82%30.33 "Hg10 mi
7:20 AM52 °FSunny.7 mph77%30.33 "Hg10 mi
6:50 AM50 °FSunny.5 mph82%30.33 "Hg10 mi
6:20 AM46 °FClear.6 mph87%30.30 "Hg10 mi
5:50 AM46 °FClear.5 mph87%30.33 "Hg10 mi
5:20 AM46 °FClear.5 mph87%30.33 "Hg10 mi
4:50 AM50 °FClear.5 mph82%30.33 "Hg10 mi
4:20 AM50 °FClear.3 mph82%30.33 "Hg10 mi
3:50 AM52 °FClear.5 mph77%30.33 "Hg10 mi
3:20 AM54 °FClear.5 mph67%30.33 "Hg10 mi
2:50 AM52 °FPassing clouds.3 mph77%30.33 "HgN/A
2:20 AM50 °FClear.5 mph82%30.36 "Hg10 mi
1:50 AM50 °FClear.5 mph82%30.36 "Hg10 mi
1:20 AM50 °FClear.3 mph82%30.36 "Hg10 mi
12:50 AM50 °FClear.2 mph82%30.36 "Hg10 mi
12:20 AM52 °FClear.2 mph77%30.36 "Hg10 mi
11:50 PM
Thu, May 21
52 °FClear.2 mph72%30.36 "Hg10 mi
11:20 PM52 °FClear.1 mph72%30.36 "Hg10 mi
10:50 PM54 °FClear.No wind63%30.36 "Hg10 mi
10:20 PM54 °FSunny.1 mph58%30.33 "Hg10 mi
9:50 PM54 °FSunny.2 mph58%30.33 "Hg10 mi
9:20 PM55 °FSunny.3 mph55%30.33 "Hg10 mi
8:50 PM57 °FSunny.7 mph51%30.33 "Hg10 mi
8:20 PM59 °FSunny.9 mph48%30.33 "Hg10 mi
7:50 PM59 °FPassing clouds.10 mph48%30.33 "HgN/A
7:20 PM61 °FPassing clouds.9 mph48%30.30 "HgN/A
6:50 PM61 °FSunny.13 mph45%30.30 "Hg10 mi
6:20 PM61 °FPassing clouds.10 mph45%30.30 "HgN/A
5:50 PM63 °FPassing clouds.13 mph39%30.30 "HgN/A
5:20 PM63 °FPassing clouds.14 mph42%30.30 "HgN/A
4:50 PM64 °FPassing clouds.10 mph40%30.30 "HgN/A
4:20 PM64 °FPassing clouds.10 mph40%30.30 "HgN/A
3:50 PM64 °FPassing clouds.9 mph40%30.30 "HgN/A
3:20 PM64 °FScattered clouds.10 mph40%30.30 "HgN/A
2:50 PM63 °FScattered clouds.9 mph42%30.30 "HgN/A
2:20 PM61 °FScattered clouds.12 mph48%30.30 "HgN/A
1:50 PM61 °FScattered clouds.12 mph48%30.30 "HgN/A
1:20 PM63 °FScattered clouds.8 mph49%30.30 "HgN/A
12:50 PM59 °FScattered clouds.7 mph51%30.30 "HgN/A
12:20 PM61 °FScattered clouds.6 mph52%30.30 "HgN/A
Weather by CustomWeather, © 2015

See weather overviewHow to use our weather pages